FW0871 Weather Reports


time (UTC)temp
C
wind
direction
speed
KPH
gust
KPH
rain 1hr
cm
rain 24hr
cm
rain mn
cm
humidity
%
barometer
mb
20260505031530 12 127 8.0 22.5 0.00 0.00 0.00 74 1008.4
20260505030024 12 163 11.3 25.7 0.00 0.00 0.00 74 1008.3
20260505024523 12 270 8.0 19.3 0.00 0.00 0.00 75 1008.3
20260505023023 12 157 6.4 20.9 0.00 0.00 0.00 77 1008.3
20260505021523 11 159 6.4 19.3 0.00 0.00 0.00 79 1008.2
20260505020019 11 191 4.8 20.9 0.00 0.00 0.00 80 1008.2
20260505014522 11 123 9.7 22.5 0.00 0.00 0.00 82 1008.1
20260505013017 10 142 9.7 24.1 0.00 0.00 0.00 84 1007.8
20260505011515 10 160 9.7 24.1 0.00 0.00 0.00 85 1007.6
20260505010015 10 134 4.8 17.7 0.00 0.00 0.00 84 1007.4
20260505004512 10 128 6.4 17.7 0.00 0.00 0.00 84 1007.3
20260505003010 10 209 8.0 20.9 0.00 0.00 0.00 85 1007.0
20260505001509 9 165 3.2 8.0 0.00 0.00 0.00 86 1007.0
20260505000045 8 113 0.0 4.8 0.00 0.00 0.00 87 1006.9
20260504234536 8 144 0.0 3.2 0.00 0.00 0.00 86 1006.8
20260504233034 10 118 0.0 1.6 0.00 0.00 0.00 84 1006.6
20260504231535 10 102 0.0 3.2 0.00 0.00 0.00 82 1006.5
20260504230032 11 42 0.0 1.6 0.00 0.00 0.00 81 1006.3
20260504224535 11 124 0.0 8.0 0.00 0.00 0.00 82 1006.2
20260504223031 11 135 0.0 0.0 0.00 0.00 0.00 81 1006.1
20260504221529 11 134 0.0 0.0 0.00 0.00 0.00 81 1005.9
20260504220028 11 115 0.0 6.4 0.00 0.00 0.00 81 1006.1
20260504214538 12 115 0.0 4.8 0.00 0.00 0.00 79 1005.9
20260504213028 12 103 1.6 8.0 0.00 0.00 0.00 78 1005.8
20260504211523 11 155 3.2 11.3 0.00 0.00 0.00 81 1005.9
20260504210022 12 155 3.2 9.7 0.00 0.00 0.00 77 1005.8
20260504204521 12 125 3.2 6.4 0.00 0.00 0.00 78 1005.8
20260504203050 12 107 0.0 9.7 0.00 0.00 0.00 79 1005.8
20260504201550 13 156 4.8 9.7 0.00 0.00 0.00 73 1005.7
20260504200052 15 164 1.6 4.8 0.00 0.00 0.00 69 1005.7
20260504194539 14 290 0.0 4.8 0.00 0.00 0.00 65 1005.6
20260504193039 13 186 0.0 3.2 0.00 0.00 0.00 70 1005.8
20260504191534 12 276 0.0 4.8 0.00 0.00 0.00 73 1006.1
20260504190028 12 259 0.0 11.3 0.00 0.00 0.00 74 1006.3
20260504184535 12 114 1.6 12.9 0.00 0.00 0.00 71 1005.9
20260504183033 13 176 4.8 14.5 0.00 0.00 0.00 69 1006.0
20260504181526 12 179 3.2 16.1 0.00 0.00 0.00 70 1006.2
20260504180026 12 134 8.0 17.7 0.00 0.05 0.00 72 1006.3
20260504174524 12 141 8.0 17.7 0.00 0.05 0.00 72 1006.2
20260504173053 12 181 6.4 22.5 0.00 0.05 0.00 72 1006.1
20260504171554 13 132 14.5 29.0 0.00 0.05 0.00 68 1006.1
20260504081529 5 23 0.0 1.6 0.00 0.41 0.36 79 1008.2
20260504044511 5 269 0.0 1.6 0.00 0.48 0.36 80 1007.8
20260504043010 5 268 0.0 1.6 0.00 0.48 0.36 79 1007.9
20260504041503 5 278 0.0 3.2 0.00 0.48 0.36 80 1007.9
20260504040002 5 285 0.0 0.0 0.00 0.48 0.36 78 1007.8
20260504034501 6 285 0.0 6.4 0.00 0.48 0.36 73 1007.7
20260504033125 6 300 1.6 8.0 0.00 0.48 0.36 71 1007.6